Canby, MN

9:32 AM CDT on October 17, 2017 (GMT -0500)
Canby

Weather History for KCNB - October, 2013

Change the Weather History Date:

Tuesday, October 29, 2013

  Actual Average (KMML) Record (KMML)
Temperature  
Mean Temperature 34 °F -  
Max Temperature 36 °F 52 °F 79 °F (1950)
Min Temperature 31 °F 30 °F 12 °F (1967)
Degree Days  
Heating Degree Days 32    
Moisture  
Dew Point 31 °F    
Average Humidity 89    
Maximum Humidity 99    
Minimum Humidity 68    
Precipitation  
Precipitation 0.00 in - - ()
Sea Level Pressure  
Sea Level Pressure 30.21 in    
Wind  
Wind Speed 6 mph (ENE)    
Max Wind Speed 10 mph    
Max Gust Speed -    
Visibility 8 miles    
Events Rain , Snow    
Averages and records for this station are not official NWS values.
T = Trace of Precipitation, MM = Missing Value Source: NWS Daily Summary

Daily Weather History Graph

Daily Weather History Graph

Search for Another Location

Airport or City:

Trip Planner

Search our weather history database for the weather conditions in past years. The results will help you decide how hot, cold, wet, or windy it might be!

Date:

Astronomy

Oct. 29, 2013 Rise Set
Actual Time 7:59 AM CDT 6:17 PM CDT
Civil Twilight 7:28 AM CDT 6:47 PM CDT
Nautical Twilight 6:54 AM CDT 7:22 PM CDT
Astronomical Twilight 6:20 AM CDT 7:56 PM CDT
Moon 2:38 AM CDT (10/29) 3:42 PM CDT (10/29)
Length of Visible Light 11h 18m
Length of Day
10h 18m
Waning Crescent, 25% of the Moon is Illuminated
Oct 29
Waning Crescent
Nov 3
New
Nov 9
First Quarter
Nov 17
Full
Nov 25
Last Quarter

Hourly Weather History & Observations

Time (CDT) Temp. Windchill Dew Point Humidity Pressure Visibility Wind Dir Wind Speed Gust Speed Precip Events Conditions
12:14 AM 34.0 °F 26.0 °F 24.4 °F 68% 30.36 in 10.0 mi ENE 10.4 mph - N/A   Overcast
12:34 AM 33.8 °F 25.8 °F 24.8 °F 70% 30.36 in 10.0 mi ENE 10.4 mph - N/A   Overcast
12:54 AM 33.8 °F 28.6 °F 24.8 °F 70% 30.38 in 10.0 mi ENE 5.8 mph - N/A   Overcast
1:14 AM 33.8 °F 27.7 °F 25.3 °F 71% 30.38 in 10.0 mi ENE 6.9 mph - N/A   Overcast
1:34 AM 33.4 °F 28.1 °F 25.2 °F 72% 30.39 in 10.0 mi NE 5.8 mph - N/A   Overcast
1:54 AM 33.3 °F 27.1 °F 25.5 °F 73% 30.39 in 10.0 mi NE 6.9 mph - N/A   Overcast
2:14 AM 32.9 °F 28.5 °F 25.5 °F 74% 30.39 in 10.0 mi NNE 4.6 mph - N/A   Overcast
2:34 AM 32.9 °F 26.7 °F 25.7 °F 75% 30.38 in 10.0 mi NE 6.9 mph - N/A   Overcast
2:54 AM 32.9 °F 25.9 °F 25.7 °F 75% 30.37 in 10.0 mi NE 8.1 mph - N/A   Overcast
3:14 AM 32.9 °F 27.5 °F 26.1 °F 76% 30.36 in 10.0 mi ENE 5.8 mph - N/A   Overcast
3:34 AM 32.4 °F 26.0 °F 26.4 °F 79% 30.35 in 7.0 mi NE 6.9 mph - N/A Snow Light Snow
3:54 AM 32.2 °F 25.8 °F 26.6 °F 80% 30.34 in 10.0 mi ENE 6.9 mph - N/A Snow Light Snow
4:14 AM 32.0 °F 24.8 °F 27.5 °F 83% 30.33 in 7.0 mi ENE 8.1 mph - N/A Snow Light Snow
4:34 AM 32.0 °F 26.4 °F 27.7 °F 84% 30.33 in 3.0 mi ENE 5.8 mph - N/A Snow Light Snow
4:54 AM 32.0 °F - 28.2 °F 86% 30.34 in 5.0 mi Calm Calm - N/A Snow Light Snow
5:14 AM 31.8 °F - 28.6 °F 88% 30.33 in 4.0 mi Calm Calm - N/A Snow Light Snow
5:34 AM 31.6 °F 28.3 °F 29.1 °F 90% 30.33 in 5.0 mi NNE 3.5 mph - N/A Snow Light Snow
5:54 AM 31.5 °F 25.8 °F 29.3 °F 92% 30.32 in 7.0 mi NNE 5.8 mph - N/A   Overcast
6:14 AM 31.5 °F 25.8 °F 29.7 °F 93% 30.31 in 7.0 mi NE 5.8 mph - N/A   Overcast
6:34 AM 31.6 °F 25.1 °F 29.3 °F 91% 30.29 in 10.0 mi NE 6.9 mph - N/A   Overcast
6:54 AM 31.8 °F 26.2 °F 29.3 °F 90% 30.28 in 10.0 mi ENE 5.8 mph - N/A   Overcast
7:14 AM 32.0 °F 25.6 °F 29.3 °F 90% 30.27 in 10.0 mi ENE 6.9 mph - N/A   Overcast
7:34 AM 32.0 °F 28.7 °F 29.3 °F 90% 30.27 in 10.0 mi East 3.5 mph - N/A   Overcast
7:54 AM 32.0 °F 28.7 °F 29.1 °F 89% 30.28 in 10.0 mi ESE 3.5 mph - N/A   Overcast
8:14 AM 32.0 °F 27.5 °F 29.1 °F 89% 30.27 in 10.0 mi ENE 4.6 mph - N/A   Overcast
8:34 AM 32.2 °F 28.9 °F 29.1 °F 88% 30.26 in 10.0 mi ENE 3.5 mph - N/A   Overcast
8:54 AM 32.4 °F - 29.3 °F 88% 30.26 in 10.0 mi Calm Calm - N/A   Overcast
9:14 AM 32.9 °F 29.8 °F 29.3 °F 87% 30.26 in 10.0 mi ENE 3.5 mph - N/A   Overcast
9:33 AM 32.9 °F 29.8 °F 29.5 °F 87% 30.26 in 10.0 mi ENE 3.5 mph - N/A   Overcast
9:54 AM 33.1 °F - 29.5 °F 87% 30.26 in 10.0 mi Calm Calm - N/A   Overcast
10:14 AM 33.8 °F 28.6 °F 30.2 °F 87% 30.25 in 10.0 mi East 5.8 mph - N/A   Overcast
10:34 AM 34.2 °F 29.0 °F 30.2 °F 85% 30.24 in 10.0 mi East 5.8 mph - N/A   Drizzle
10:54 AM 34.7 °F 28.8 °F 31.1 °F 87% 30.23 in 10.0 mi East 6.9 mph - N/A   Light Drizzle
11:14 AM 35.1 °F 28.6 °F 32.0 °F 89% 30.22 in 4.0 mi East 8.1 mph - N/A Rain Light Rain
11:34 AM 35.1 °F 27.4 °F 32.0 °F 89% 30.22 in 10.0 mi East 10.4 mph - N/A   Overcast
11:54 AM 35.6 °F 29.2 °F 32.0 °F 87% 30.21 in 10.0 mi East 8.1 mph - N/A   Overcast
12:14 PM 36.0 °F 29.6 °F 32.2 °F 86% 30.20 in 10.0 mi ENE 8.1 mph - N/A   Overcast
12:34 PM 36.0 °F 30.3 °F 32.0 °F 86% 30.20 in 10.0 mi NE 6.9 mph - N/A   Overcast
12:54 PM 36.3 °F 31.6 °F 32.2 °F 85% 30.20 in 5.0 mi NNE 5.8 mph - N/A Rain Rain
1:14 PM 35.8 °F 31.9 °F 32.5 °F 88% 30.19 in 10.0 mi NNE 4.6 mph - N/A   Overcast
1:34 PM 36.0 °F 32.1 °F 32.7 °F 88% 30.18 in 10.0 mi NE 4.6 mph - N/A   Overcast
1:54 PM 36.3 °F 32.5 °F 32.9 °F 87% 30.18 in 10.0 mi NE 4.6 mph - N/A   Light Drizzle
2:14 PM 36.0 °F 31.1 °F 32.9 °F 89% 30.17 in 10.0 mi NE 5.8 mph - N/A   Overcast
2:34 PM 36.5 °F 31.0 °F 33.4 °F 89% 30.15 in 10.0 mi NE 6.9 mph - N/A   Overcast
2:54 PM 36.3 °F 30.8 °F 33.8 °F 91% 30.15 in 10.0 mi NE 6.9 mph - N/A   Overcast
3:14 PM 36.1 °F 29.9 °F 33.8 °F 91% 30.13 in 10.0 mi NE 8.1 mph - N/A   Overcast
3:34 PM 36.5 °F 29.7 °F 34.3 °F 92% 30.12 in 10.0 mi ENE 9.2 mph - N/A   Overcast
3:54 PM 36.7 °F 29.9 °F 34.2 °F 91% 30.11 in 10.0 mi ENE 9.2 mph - N/A   Overcast
4:14 PM 36.7 °F 29.9 °F 34.2 °F 91% 30.10 in 10.0 mi NE 9.2 mph - N/A   Overcast
4:34 PM 36.7 °F 29.9 °F 34.3 °F 91% 30.10 in 10.0 mi NE 9.2 mph - N/A   Overcast
4:54 PM 36.5 °F 29.7 °F 34.2 °F 91% 30.10 in 10.0 mi NE 9.2 mph - N/A   Overcast
5:14 PM 36.1 °F 29.9 °F 34.0 °F 92% 30.11 in 10.0 mi ENE 8.1 mph - N/A   Overcast
5:34 PM 36.1 °F 29.9 °F 34.0 °F 92% 30.10 in 10.0 mi ENE 8.1 mph - N/A   Overcast
5:54 PM 36.0 °F 30.3 °F 34.0 °F 93% 30.10 in 7.0 mi ENE 6.9 mph - N/A   Overcast
6:14 PM 36.0 °F 29.6 °F 34.2 °F 93% 30.10 in 5.0 mi ENE 8.1 mph - N/A   Overcast
6:34 PM 35.8 °F 30.1 °F 34.7 °F 96% 30.09 in 4.0 mi ENE 6.9 mph - N/A   Overcast
6:54 PM 35.6 °F 30.7 °F 34.7 °F 97% 30.10 in 4.0 mi NE 5.8 mph - N/A   Overcast
7:14 PM 35.6 °F 30.7 °F 34.9 °F 97% 30.10 in 4.0 mi ENE 5.8 mph - N/A   Overcast
7:34 PM 35.6 °F 29.9 °F 34.9 °F 97% 30.10 in 5.0 mi ENE 6.9 mph - N/A   Overcast
7:54 PM 35.6 °F 31.7 °F 34.9 °F 97% 30.10 in 5.0 mi ENE 4.6 mph - N/A   Overcast
8:14 PM 35.6 °F - 35.1 °F 98% 30.10 in 3.0 mi Calm Calm - N/A   Overcast
8:34 PM 35.6 °F 31.7 °F 35.1 °F 98% 30.10 in 2.5 mi ENE 4.6 mph - N/A   Overcast
8:54 PM 35.6 °F 32.8 °F 35.2 °F 99% 30.10 in 2.5 mi NE 3.5 mph - N/A   Overcast
9:14 PM 35.6 °F 31.7 °F 35.2 °F 99% 30.10 in 2.0 mi ENE 4.6 mph - N/A   Overcast
9:34 PM 35.6 °F 32.8 °F 35.1 °F 98% 30.09 in 1.8 mi ENE 3.5 mph - N/A   Overcast
9:54 PM 35.6 °F 31.7 °F 35.2 °F 99% 30.09 in 2.5 mi NE 4.6 mph - N/A   Overcast
10:14 PM 35.6 °F 32.8 °F 35.2 °F 99% 30.09 in 2.0 mi NE 3.5 mph - N/A   Overcast
10:34 PM 35.6 °F 32.8 °F 35.2 °F 99% 30.09 in 2.5 mi NNE 3.5 mph - N/A   Overcast
10:54 PM 35.2 °F 31.2 °F 35.1 °F 99% 30.09 in 2.0 mi NNE 4.6 mph - N/A   Overcast
11:14 PM 35.1 °F 32.2 °F 34.9 °F 99% 30.09 in 2.0 mi NNE 3.5 mph - N/A   Overcast
11:34 PM 35.1 °F 31.0 °F 34.9 °F 99% 30.08 in 2.5 mi NE 4.6 mph - N/A   Overcast
11:54 PM 34.9 °F - 34.7 °F 99% 30.08 in 2.5 mi Calm Calm - N/A   Overcast